Wind_Speed
2 2 2 3 3 3 3 3 3 3 3 4 4 4 4 4 3 3 3 3 3 3 4 4 5 6 7 8 9 10 11 10 7 5 1 1 3 5 5 5 5 5 5 7 7 7 7 4 1 3 4 2 1 1 1 1 1 1 1 1 3 1 2 1 2 3 4 6 5 4 1 1 3 3 1 1 2 4 3 8 6 8 9 8 8 6 6 9
2 2 2 3 2 3 4 4 3 3 3 3 3 3 4 4 3 3 3 3 3 3 4 4 5 6 7 8 9 11 12 10 7 3 2 2 5 6 6 6 5 5 6 7 9 8 7 3 4 4 4 2 0 0 1 1 1 0 2 2 1 2 2 3 6 5 2 5 6 4 3 3 1 3 1 1 3 5 3 6 6 7 8 8 9 8 8 10
2 2 2 2 2 3 3 3 3 3 3 3 3 3 3 3 3 3 2 2 3 3 4 4 5 6 7 8 9 11 12 8 4 1 3 5 6 6 6 6 5 6 6 8 8 8 7 6 6 5 3 1 1 0 1 1 1 0 1 2 2 3 3 5 7 6 6 5 4 5 4 1 1 2 1 2 3 2 2 3 4 7 6 6 7 8 9 10
3 3 3 2 2 3 2 3 3 3 3 3 3 2 2 2 2 2 2 2 3 3 4 4 5 6 6 7 8 11 9 4 1 2 5 7 6 6 6 5 6 6 7 7 6 6 7 7 6 4 3 1 2 1 1 2 1 1 1 1 3 2 3 5 6 7 6 5 3 4 2 1 1 2 0 2 4 1 3 4 3 6 5 5 6 7 9 10
3 3 3 3 3 2 2 3 3 3 3 2 2 2 2 2 1 2 2 2 3 4 4 5 5 5 6 6 8 9 6 1 1 3 7 8 6 7 6 5 5 6 8 6 6 6 6 7 5 3 3 2 3 2 1 3 1 1 1 3 4 4 2 5 6 6 4 3 3 2 1 1 2 0 2 2 2 1 3 3 5 6 5 5 5 6 8 9
4 4 4 4 4 4 4 4 4 4 3 2 2 2 2 2 2 2 3 3 4 4 4 4 4 5 5 6 8 7 4 0 3 7 8 7 6 6 5 4 4 6 7 5 6 5 5 5 3 3 2 2 0 2 1 1 1 1 1 3 4 3 2 4 5 3 2 2 1 1 2 2 2 3 3 1 1 3 4 4 5 5 5 6 6 7 7 7
6 5 6 5 5 5 5 5 5 5 4 3 3 3 3 4 4 3 3 4 4 4 4 3 4 5 5 5 6 4 2 0 3 8 8 7 6 5 4 3 3 6 6 5 6 4 3 4 4 2 3 3 1 3 2 2 1 2 1 3 4 3 2 3 4 3 1 1 1 2 3 3 3 3 2 3 5 6 5 5 6 6 6 6 7 6 6 6
7 6 7 6 6 7 6 6 6 6 5 4 4 4 4 5 5 4 4 4 4 4 3 3 3 4 5 5 4 2 3 1 4 8 7 5 5 3 2 2 3 5 5 5 6 6 4 4 4 3 3 2 2 1 1 2 3 2 1 2 2 1 0 3 4 4 2 3 1 1 1 5 5 1 0 5 8 6 6 6 6 6 6 6 6 5 5 6
8 7 7 7 7 7 7 7 7 7 6 5 5 5 6 6 5 5 5 4 4 3 3 3 3 3 4 4 3 2 1 3 5 7 6 4 3 3 1 2 2 3 4 3 4 6 3 3 3 4 4 2 2 2 2 1 1 1 3 2 0 2 3 5 5 5 5 4 2 2 5 7 3 2 1 5 9 7 7 6 5 5 5 5 4 4 5 6
9 8 8 7 7 7 6 7 8 8 7 7 7 6 6 6 5 5 5 4 4 3 3 3 3 3 3 3 3 2 1 5 5 5 5 5 3 2 1 1 0 2 4 2 2 5 3 4 4 3 3 2 1 1 2 1 1 2 3 4 4 5 4 5 5 5 5 4 5 5 6 5 3 3 2 5 8 7 7 6 5 5 5 5 4 4 5 6
10 9 8 8 8 7 7 7 8 8 8 7 7 7 6 6 5 4 4 4 4 3 3 3 3 3 3 3 3 2 2 5 5 5 5 5 5 4 3 3 2 0 4 3 2 3 4 6 6 3 2 2 1 1 1 1 1 2 3 5 7 7 6 5 6 6 4 3 6 6 6 2 4 1 4 7 8 8 8 7 5 5 5 5 4 4 4 6
11 10 10 9 8 8 8 8 8 8 8 8 8 7 7 7 6 5 4 4 3 3 3 2 3 2 2 3 4 3 5 6 5 5 5 5 6 5 4 4 4 2 2 4 1 0 3 4 5 4 1 2 2 2 1 1 2 2 1 5 6 6 7 9 8 5 4 2 4 5 3 4 5 3 5 9 8 7 7 7 6 5 5 5 4 4 4 6
12 12 11 10 9 9 8 8 8 9 8 8 8 7 7 8 7 5 4 3 3 3 3 3 2 1 1 2 3 6 7 6 5 5 5 5 4 4 4 4 3 3 1 3 2 1 3 1 3 4 2 3 2 1 1 1 1 2 3 3 4 5 6 8 8 6 5 3 5 5 1 6 8 6 7 8 8 7 7 6 6 5 5 5 4 4 4 5
13 14 13 12 11 9 8 8 9 9 9 9 9 8 8 7 6 5 4 3 3 3 3 3 3 2 0 1 2 5 6 5 5 5 6 6 5 4 3 3 2 2 2 2 1 1 2 1 3 3 2 2 1 0 2 2 2 3 3 2 2 3 3 3 6 7 5 2 5 6 2 5 4 7 7 7 7 7 6 6 6 6 5 5 4 5 5 5
14 15 14 13 12 10 8 8 9 11 11 11 9 8 8 6 4 3 3 3 2 3 2 2 4 2 1 3 1 3 5 5 5 7 7 8 5 4 4 3 2 2 2 1 2 2 2 1 3 2 2 1 1 1 3 3 3 3 2 2 3 3 2 1 5 8 5 1 4 5 2 3 4 7 6 6 7 7 6 7 7 6 6 6 5 5 5 6
15 15 15 14 12 10 8 7 10 12 14 12 9 6 5 4 2 1 1 2 1 2 2 0 5 4 3 2 2 2 4 4 7 8 9 9 6 5 8 5 4 3 2 3 3 4 2 2 1 1 0 1 2 2 3 4 3 3 4 4 3 4 4 2 3 5 4 4 5 6 3 2 3 6 6 6 7 7 6 6 7 6 6 6 5 5 5 6
16 16 16 15 13 11 8 8 10 11 14 11 6 3 2 1 1 0 0 1 2 2 1 2 2 4 2 1 2 2 4 6 9 9 9 10 7 7 9 6 5 5 4 4 3 3 2 1 1 1 1 2 3 3 2 4 4 3 4 4 5 5 4 2 1 3 4 4 5 7 6 5 3 8 8 7 8 8 7 7 7 7 6 6 5 5 5 6
18 17 16 15 14 11 9 8 9 11 13 8 3 1 1 1 1 1 1 2 3 2 2 4 2 3 3 3 3 3 7 9 10 8 9 10 8 7 7 4 6 7 5 3 1 2 2 1 1 1 2 3 3 4 4 4 4 4 3 3 4 4 5 4 1 3 6 4 5 6 7 8 6 8 7 8 9 8 8 7 7 7 6 6 5 5 5 6
19 18 16 15 15 12 10 9 9 11 10 3 1 3 3 2 1 2 3 3 3 1 2 3 5 1 1 5 5 7 9 11 9 6 8 10 8 7 6 4 5 5 4 3 3 4 3 1 2 1 3 5 5 6 7 7 6 5 3 1 3 3 4 3 1 4 5 3 6 7 7 8 6 7 8 8 8 8 7 6 6 6 6 6 5 5 5 6
20 19 17 15 14 11 10 9 10 10 7 2 1 1 1 0 2 2 5 6 7 7 4 4 10 3 2 5 8 9 10 9 5 4 9 10 10 8 5 4 4 2 3 3 4 3 2 3 4 5 6 7 8 10 10 9 8 5 2 3 5 4 5 4 1 3 1 1 5 6 6 9 7 6 9 9 7 7 8 7 7 6 6 6 6 6 6 6
20 19 17 16 13 11 9 10 9 8 7 5 2 3 0 1 2 0 2 7 13 17 12 6 10 5 2 7 12 13 7 2 2 5 11 11 10 8 5 5 4 2 5 5 3 2 1 4 7 8 8 8 8 9 10 10 9 6 3 4 5 4 6 5 1 4 2 1 4 6 7 10 9 7 7 10 8 9 10 9 9 8 7 6 7 8 6 6
21 19 17 16 14 11 10 10 7 6 9 5 5 6 2 4 2 3 1 4 9 17 16 12 10 4 3 8 14 11 3 2 4 5 11 11 8 6 5 6 5 4 6 5 3 2 2 6 9 10 8 8 6 3 4 7 6 5 3 3 4 4 5 3 2 3 2 1 3 5 7 9 9 8 6 11 11 9 10 9 9 9 9 7 7 8 7 7
23 20 17 16 14 14 13 10 6 7 11 8 7 8 2 5 5 5 1 4 5 11 12 11 12 8 6 6 11 10 4 6 6 7 14 12 6 4 5 7 7 6 6 7 5 4 5 6 9 11 9 8 5 1 2 3 3 3 3 3 4 4 4 3 1 2 3 2 4 5 7 8 8 9 8 10 8 3 2 2 2 4 7 7 7 7 7 8
24 21 19 16 14 15 14 10 7 9 13 11 11 12 4 4 8 7 1 3 5 6 10 14 12 10 9 6 11 12 5 6 6 7 17 15 6 3 5 7 8 6 6 9 9 8 8 4 4 10 9 7 5 4 4 3 3 5 6 5 5 4 6 5 3 3 3 4 5 3 7 7 7 12 10 4 4 3 3 3 3 2 3 6 6 6 7 7
24 23 20 16 14 16 15 11 8 11 13 11 14 16 11 6 7 7 2 2 5 3 5 11 6 7 11 9 13 11 4 7 5 7 19 17 8 5 4 5 5 6 8 10 10 9 10 5 3 7 7 6 6 5 6 6 4 4 6 8 9 8 6 5 3 2 2 3 3 2 3 5 4 9 7 4 3 3 4 4 4 3 3 6 6 6 7 7
25 23 21 17 16 18 14 8 9 12 12 13 13 11 10 9 4 3 1 2 6 2 2 6 5 8 12 10 11 7 1 6 1 10 20 15 6 4 3 4 3 5 7 7 7 5 3 3 3 5 6 6 6 5 5 7 4 4 4 4 7 7 4 3 5 3 2 3 1 3 2 5 5 4 4 6 6 6 6 6 7 7 5 6 6 6 6 7
26 24 23 19 19 22 14 5 10 14 8 10 12 9 8 10 7 3 1 2 6 4 5 3 3 7 9 12 14 7 1 3 5 8 11 7 4 1 2 7 4 4 3 1 4 2 3 5 3 5 6 5 6 5 5 8 4 3 3 3 2 2 1 1 2 3 3 3 2 4 3 5 8 5 6 8 7 7 8 9 8 8 9 8 8 8 8 7
28 26 25 22 24 26 16 8 13 16 8 3 8 12 10 9 8 2 1 3 4 4 5 2 1 3 5 11 14 7 1 4 5 1 1 1 2 2 3 9 6 6 4 3 5 1 3 7 6 7 7 5 5 3 5 9 5 2 1 3 5 4 1 1 2 3 3 4 3 5 4 4 8 3 6 8 7 8 10 11 11 10 11 10 10 10 10 8
30 29 28 26 25 27 20 11 11 15 14 7 7 12 12 9 7 1 1 4 1 3 3 3 3 3 7 10 10 6 3 2 1 1 1 1 1 1 3 6 4 6 7 8 9 1 1 3 4 6 6 5 3 2 1 6 5 3 3 5 5 3 2 1 1 1 2 5 6 6 6 4 7 2 5 4 4 9 11 10 11 11 11 11 11 11 11 10
32 31 30 28 27 29 25 18 12 12 17 14 6 11 14 8 4 2 3 5 1 1 2 2 3 6 10 10 7 5 4 2 2 2 1 1 1 2 1 2 2 3 3 6 7 1 3 1 0 2 2 2 4 5 5 2 5 6 4 5 4 1 2 2 1 1 1 7 7 9 10 6 5 3 6 5 5 8 8 6 8 10 10 11 10 11 11 10
35 33 32 33 33 32 24 18 18 15 17 19 12 12 12 3 0 5 7 2 3 1 4 1 4 9 13 13 8 6 5 3 4 6 4 3 1 1 1 1 1 1 2 3 4 1 3 1 0 0 1 3 5 4 4 4 3 5 4 4 3 1 3 2 1 2 2 7 4 9 13 11 7 5 4 5 4 7 8 8 11 12 12 11 10 10 10 10
39 36 36 37 37 35 26 20 25 22 18 20 16 11 7 2 1 7 6 2 1 4 7 5 7 10 13 13 9 8 8 5 6 7 5 5 5 5 6 6 5 4 3 4 3 1 2 4 4 1 2 3 5 3 3 5 2 3 4 5 4 1 1 0 2 3 5 7 3 3 7 9 9 7 6 6 3 3 4 9 12 14 14 12 11 11 9 9
43 39 38 40 40 38 31 24 28 27 20 21 15 4 3 4 7 11 9 5 2 2 6 8 9 11 13 11 6 7 7 4 7 8 5 6 6 6 8 7 8 6 3 5 5 2 2 4 6 4 2 5 8 6 3 1 3 6 6 6 5 3 2 3 4 3 5 5 3 2 1 3 4 5 10 10 3 3 2 8 12 14 15 13 12 11 9 10
45 43 41 44 43 40 33 27 30 30 23 19 11 3 5 9 11 13 15 12 5 1 4 7 9 11 11 8 6 8 5 4 9 8 5 7 5 6 8 9 12 8 1 4 4 5 4 4 7 9 3 7 13 10 7 5 5 8 6 5 5 5 3 4 4 3 3 2 3 2 2 3 2 2 4 3 3 5 5 5 10 10 11 11 10 10 10 10
45 46 43 42 43 42 37 31 32 34 25 13 7 7 11 11 12 14 15 13 8 2 3 7 9 9 8 5 5 8 4 2 8 8 6 8 7 8 9 10 14 10 4 4 3 5 7 5 6 8 4 11 14 9 6 8 3 5 4 4 6 4 3 3 1 2 1 2 2 2 3 4 3 1 1 3 5 5 6 5 10 9 10 11 10 10 10 10
40 41 39 38 42 44 41 35 36 38 25 10 8 10 12 13 12 11 9 10 11 7 7 7 6 6 7 4 4 7 3 2 7 6 4 7 7 8 9 8 13 13 9 8 3 4 6 3 2 4 3 8 8 6 7 6 3 3 4 6 4 2 3 4 2 2 2 4 4 4 3 4 1 1 2 4 4 3 3 2 9 10 11 12 10 10 11 11
35 32 28 32 40 44 43 39 41 38 21 10 12 12 11 14 11 6 6 10 11 10 9 7 6 7 7 5 5 8 5 3 7 6 3 4 5 8 11 7 11 17 14 9 3 2 4 1 1 1 2 2 2 0 2 1 3 4 4 5 3 4 1 1 2 2 1 6 5 5 6 4 3 3 1 5 4 3 5 5 7 9 11 12 10 10 11 11
30 21 17 29 41 42 43 44 43 31 12 8 14 13 11 14 12 8 7 9 10 12 11 9 7 8 8 7 6 10 9 5 7 7 4 5 4 8 13 8 10 17 17 10 3 2 3 2 3 1 1 0 3 1 2 3 2 4 2 3 3 1 1 3 2 3 4 6 5 3 7 6 6 5 4 7 9 9 8 8 9 11 12 11 10 11 11 11
24 11 9 31 44 41 44 46 35 18 7 7 11 11 11 13 13 10 8 8 9 11 12 12 9 8 10 10 7 10 12 9 10 8 5 6 4 7 14 10 8 15 16 13 7 2 2 3 3 3 2 2 1 1 4 3 1 1 2 3 1 2 3 4 3 2 3 4 5 3 4 4 6 7 10 12 13 12 12 10 11 12 13 12 11 12 12 12
15 4 7 28 45 46 49 42 21 8 8 9 10 10 10 11 11 11 10 9 8 8 9 11 12 10 10 11 8 9 11 9 11 9 6 7 5 5 12 11 8 11 13 13 8 2 2 3 3 2 3 2 2 5 9 10 8 4 2 3 3 2 1 1 2 3 3 3 4 4 5 5 3 3 10 15 13 12 14 14 12 12 13 12 11 12 13 13
7 5 4 22 46 51 43 25 10 8 8 8 11 13 11 8 8 11 12 10 6 5 4 6 10 11 10 11 9 8 8 8 9 8 6 8 7 4 8 12 10 9 8 7 7 4 3 3 3 1 1 4 5 6 8 9 9 9 8 8 8 6 4 2 4 4 4 4 3 3 6 6 3 2 3 8 9 11 14 14 12 12 13 13 12 13 14 14
3 6 3 23 49 49 28 11 6 8 8 8 12 12 6 4 6 8 10 10 9 5 1 2 6 8 8 10 9 7 8 7 9 9 7 10 11 7 9 13 12 13 10 6 8 7 3 3 4 3 3 4 4 2 2 2 2 3 4 6 6 6 6 6 6 4 4 3 1 1 5 6 3 2 3 2 3 6 11 12 11 11 12 12 12 12 13 12
2 4 3 28 54 43 16 9 9 7 7 8 9 9 4 4 8 8 7 10 10 7 5 4 4 5 7 8 7 9 9 7 9 12 9 10 9 4 8 15 13 12 10 5 5 4 4 3 5 3 1 1 1 0 2 3 2 1 3 4 7 9 9 7 5 2 2 4 3 2 6 6 2 2 3 2 3 4 6 10 10 9 9 10 11 12 12 11
3 2 1 24 51 39 11 8 10 7 9 9 9 11 9 6 9 11 10 11 10 7 8 7 5 5 5 3 3 7 9 6 8 11 9 8 6 3 2 12 15 12 8 4 6 6 3 3 4 2 2 2 1 1 2 2 1 3 4 6 9 10 9 5 1 1 4 7 7 5 8 6 2 1 1 1 3 5 4 7 9 9 8 8 9 9 10 11
2 3 2 9 27 24 9 8 12 10 11 12 12 15 14 8 9 13 14 12 10 8 8 9 8 8 5 1 1 4 7 7 7 7 6 5 2 3 4 3 9 11 6 2 7 9 6 5 7 7 9 10 7 4 4 3 3 3 5 9 12 12 12 8 3 4 9 6 8 9 11 5 2 1 2 1 3 4 3 4 7 9 9 8 8 8 9 10
2 3 1 2 5 7 4 5 9 10 11 12 11 13 17 14 10 12 13 11 11 11 9 8 7 9 8 8 8 8 11 11 4 2 5 5 2 1 3 4 1 3 2 2 5 7 3 3 10 13 13 13 9 4 4 7 7 8 10 13 14 14 13 8 5 9 9 4 6 13 10 5 5 4 5 5 5 5 4 5 5 6 9 9 9 8 9 9
3 4 4 2 2 4 4 3 6 11 13 13 8 9 17 19 12 9 11 12 12 12 10 7 6 10 11 13 14 13 14 13 4 1 6 5 1 2 3 4 3 2 4 2 1 3 3 4 12 15 16 15 8 3 4 8 10 13 14 15 15 14 14 12 12 12 7 4 12 10 8 10 11 7 8 7 7 6 7 8 7 6 8 8 8 8 8 9
3 4 5 5 3 3 6 4 4 8 14 15 9 7 13 18 15 11 12 13 13 11 8 5 9 16 17 16 14 11 11 12 9 8 8 4 3 2 2 3 2 2 4 2 1 2 4 6 9 12 16 17 9 5 5 6 5 7 11 15 16 16 18 18 20 17 9 9 16 7 12 15 12 8 11 9 8 9 8 8 8 7 7 7 9 10 9 9
1 1 1 3 4 5 5 3 2 5 11 13 11 10 12 17 19 15 10 8 10 12 12 11 16 19 19 16 13 10 11 11 11 12 10 6 4 5 2 2 2 2 3 2 1 1 3 5 6 9 13 17 13 9 6 6 3 4 7 12 15 18 22 21 22 21 14 17 20 7 6 12 6 6 11 8 7 7 5 6 7 9 8 9 10 10 10 10
1 1 1 2 2 3 4 4 3 3 6 7 10 11 12 15 19 16 10 9 10 12 14 19 23 20 17 17 15 13 14 16 16 14 10 8 6 6 6 4 4 4 3 4 2 1 3 4 4 6 8 14 13 12 8 6 7 7 8 11 13 15 18 18 20 18 14 19 22 12 10 12 3 4 3 3 5 6 7 7 7 8 8 9 9 9 9 10
3 3 1 3 3 4 4 4 5 4 2 4 6 7 11 17 17 13 10 9 11 11 13 21 24 16 13 16 18 19 20 18 15 11 9 11 10 8 6 5 7 8 6 5 3 2 4 3 1 5 7 12 10 11 9 4 2 7 14 18 16 11 11 15 17 15 15 18 19 15 15 12 4 5 4 3 4 7 7 7 7 6 7 9 9 9 10 10
2 5 3 2 5 6 6 4 5 5 3 4 6 5 8 12 11 9 6 4 7 8 7 13 16 11 9 15 19 19 15 8 5 3 5 6 4 3 5 5 8 10 9 6 3 2 5 3 1 5 7 9 4 7 7 4 1 7 15 18 16 13 11 13 14 15 17 16 13 13 13 8 5 7 5 2 3 5 5 6 6 6 7 8 9 10 11 12
Wind_Direction
236 219 228 226 220 217 226 237 243 247 243 241 236 233 230 231 232 228 233 245 257 266 274 286 301 310 319 322 324 322 321 330 320 306 342 109 112 125 125 98 85 63 45 21 0 338 313 274 285 332 289 252 344 335 275 317 13 348 275 228 258 196 101 302 68 97 139 128 135 138 136 293 143 143 88 62 229 219 122 93 89 71 79 94 88 67 54 49
247 241 247 238 231 235 239 247 250 247 240 240 243 243 239 239 237 237 238 249 269 273 282 296 303 309 317 320 325 322 325 330 308 310 62 148 144 130 119 102 84 62 46 21 2 343 326 339 6 323 279 235 102 313 255 6 42 291 296 278 303 54 45 354 54 61 54 108 122 114 52 352 100 117 123 252 219 198 156 111 115 96 98 99 78 60 57 54
262 268 266 260 257 253 253 258 258 254 244 235 238 243 240 241 233 237 247 259 284 285 290 298 299 307 314 321 325 324 332 330 293 65 97 152 145 128 118 103 78 59 46 25 358 343 333 330 330 309 284 259 118 258 236 42 341 142 350 333 31 79 71 29 58 60 21 54 107 111 78 354 118 102 143 278 291 225 126 95 127 120 109 94 74 56 54 55
264 274 280 290 277 263 278 281 269 264 257 236 228 239 242 242 240 251 261 276 290 284 289 291 296 307 314 323 323 327 337 327 269 108 134 145 135 129 124 98 73 55 42 26 344 337 330 305 299 296 292 269 152 219 246 81 352 345 32 40 48 22 77 62 58 61 36 25 33 77 80 269 120 82 114 283 301 314 77 38 57 95 91 84 79 59 54 54
257 266 279 292 294 291 301 301 297 287 275 248 226 246 258 263 269 281 271 276 281 276 283 285 297 307 313 322 318 329 338 289 133 146 150 145 139 136 131 98 74 48 39 24 341 335 315 292 285 283 271 236 159 184 349 66 31 315 40 76 57 353 48 89 71 61 44 25 22 51 354 321 61 47 226 230 265 123 88 53 53 71 75 76 79 69 62 56
255 265 277 289 301 304 298 302 311 300 293 295 278 268 277 279 276 278 268 261 265 270 279 286 305 307 312 317 311 324 328 254 143 166 159 152 147 138 138 109 72 40 32 1 327 318 300 287 272 273 273 277 66 89 38 47 71 324 46 82 57 9 36 89 84 73 35 25 347 310 348 8 357 294 256 176 106 111 98 84 85 84 91 91 82 73 66 59
260 267 276 282 295 300 299 303 308 303 295 298 300 285 276 273 265 267 262 258 263 268 277 292 309 307 310 316 314 306 261 62 134 170 164 159 155 144 144 112 52 38 25 338 318 312 311 295 275 308 310 289 342 67 49 320 241 259 241 113 65 3 20 80 101 109 66 294 278 40 14 313 281 291 285 112 107 113 108 99 103 101 104 99 84 77 76 70
260 264 270 273 285 293 297 297 299 301 296 294 297 284 275 271 264 265 259 259 259 261 277 294 308 312 318 325 329 288 236 101 136 168 166 164 161 156 133 65 20 32 12 334 328 332 344 302 294 353 320 319 357 24 64 311 256 265 339 98 80 335 193 119 131 149 178 238 269 24 319 264 248 257 48 130 124 121 121 115 112 115 109 93 83 83 85 79
257 264 269 270 278 286 294 301 299 298 297 296 291 278 274 272 268 266 264 264 257 263 278 290 299 305 321 330 319 289 230 124 141 161 173 185 190 196 140 54 18 14 336 329 324 311 330 324 337 9 333 348 356 338 84 41 295 3 9 4 104 226 210 166 172 189 192 206 201 213 246 250 232 87 71 133 129 128 130 130 130 134 116 97 94 84 80 82
257 263 269 272 278 283 293 303 301 297 293 289 286 283 280 277 273 268 267 266 259 269 275 287 295 285 318 324 279 268 136 135 138 147 177 199 203 191 149 130 66 329 302 312 312 300 330 358 350 6 355 321 289 6 58 70 293 341 359 321 283 259 244 181 201 217 185 187 183 193 249 246 121 103 224 136 131 141 137 139 148 139 119 110 106 88 77 76
258 263 268 273 280 285 293 302 305 300 291 286 284 284 286 283 280 274 272 265 260 271 272 287 287 274 312 309 265 248 166 152 143 148 175 190 185 167 172 193 177 267 313 297 265 319 349 357 339 329 24 337 288 126 67 11 276 341 356 301 269 247 242 202 218 225 173 180 184 193 255 246 102 160 206 140 141 156 145 144 155 142 123 118 111 103 88 76
258 262 267 269 275 285 290 299 308 306 298 292 284 280 283 286 287 283 277 263 256 266 264 274 270 271 315 287 254 218 174 163 155 164 175 178 179 177 187 198 184 169 347 332 329 37 317 344 335 299 333 350 313 159 111 340 289 331 309 283 280 254 239 216 208 196 169 181 170 167 266 237 199 206 138 133 150 162 152 147 152 146 131 126 119 114 92 81
258 261 263 264 268 275 283 291 298 304 306 297 288 284 285 286 286 285 285 272 259 263 259 257 248 219 345 287 214 190 177 167 165 170 172 164 159 165 176 177 184 191 232 341 20 106 255 300 324 301 358 353 313 180 250 224 224 294 244 233 292 291 252 208 180 150 149 162 164 149 274 246 209 168 124 136 157 161 159 155 155 151 138 140 135 125 102 86
254 258 259 263 265 267 275 284 286 293 302 299 291 289 289 289 288 291 292 273 261 264 253 237 220 150 55 264 178 183 183 166 163 167 163 147 131 129 135 152 169 206 218 265 292 253 214 194 297 298 54 2 311 136 268 222 184 275 272 202 221 276 282 181 141 144 154 178 174 155 251 268 170 140 144 154 162 165 168 165 161 154 147 147 142 139 124 103
253 260 262 263 263 264 266 276 281 283 294 297 286 286 295 295 299 309 299 278 278 262 249 233 206 175 291 248 177 173 185 172 165 172 164 147 140 133 128 132 131 149 175 190 205 177 162 197 282 279 107 115 201 227 276 249 201 205 247 267 219 197 233 171 148 169 169 219 195 165 238 259 142 146 157 157 168 177 182 171 159 157 156 151 152 151 133 119
258 263 267 265 261 257 256 269 275 275 291 297 279 282 300 311 331 317 282 278 276 207 175 197 198 201 302 246 152 158 188 185 173 178 175 156 150 138 130 125 116 121 126 130 151 149 166 234 282 309 180 180 206 216 270 275 245 196 191 252 252 205 214 174 176 201 151 132 192 198 245 276 138 159 161 165 182 186 195 180 159 162 160 152 154 149 133 130
259 260 265 267 262 249 239 258 271 279 300 302 274 279 311 355 33 144 341 171 149 139 189 318 215 198 265 171 172 207 170 168 172 177 182 164 144 131 136 138 136 135 124 120 141 164 198 219 124 295 221 209 225 197 231 263 247 220 190 222 249 237 232 198 193 221 162 162 210 210 234 261 184 164 169 183 187 184 200 194 164 159 160 153 146 145 149 147
255 259 262 262 261 247 232 255 275 290 303 296 247 273 29 72 144 160 91 154 134 80 297 296 273 218 233 190 158 121 128 143 159 168 182 174 155 150 161 161 145 148 145 139 185 190 188 169 135 275 238 204 220 196 194 220 235 254 223 213 260 257 241 235 201 178 178 197 239 214 225 248 208 169 178 191 191 190 199 194 165 159 159 153 149 154 155 141
249 255 261 263 261 241 228 250 268 284 293 286 115 66 63 57 259 216 199 196 154 138 274 206 196 205 152 163 123 90 113 136 147 156 174 171 157 162 181 172 157 170 166 154 196 187 166 139 144 236 232 205 206 209 213 225 250 289 311 283 301 304 265 263 104 162 184 198 235 231 238 253 226 180 183 190 192 197 204 187 162 161 159 155 157 157 150 136
246 250 252 263 261 231 219 240 256 272 262 216 36 22 55 205 236 210 199 216 218 238 280 174 190 220 85 129 118 109 116 131 141 146 160 161 151 155 183 184 164 204 216 173 174 174 147 172 197 212 218 214 210 215 225 245 264 288 329 296 286 290 276 282 124 160 165 188 232 244 255 263 261 215 189 182 186 199 209 190 169 170 164 163 162 155 149 133
244 245 246 258 254 218 215 231 241 252 217 191 274 243 223 49 225 48 187 225 228 237 262 231 205 229 129 134 143 142 128 135 171 148 159 164 162 160 175 185 166 198 229 201 149 53 118 203 221 219 222 233 233 225 221 234 255 260 264 284 278 263 265 273 170 154 105 65 255 268 272 268 270 254 186 163 179 202 206 193 182 180 169 166 162 155 144 123
240 242 244 252 243 212 212 224 225 216 195 199 259 242 316 16 348 5 314 257 234 226 240 249 239 238 138 148 162 166 161 174 154 155 170 171 178 182 168 178 189 197 206 197 136 81 226 231 231 228 235 240 244 267 237 231 249 253 252 272 264 261 275 284 104 127 103 83 267 278 281 271 267 266 200 172 188 202 203 195 187 179 169 169 164 156 145 135
237 237 237 245 238 216 210 215 211 194 196 213 235 227 289 2 2 16 249 278 269 219 217 230 236 223 181 160 173 180 192 185 173 179 179 173 180 199 174 176 204 214 196 192 185 182 214 231 225 224 238 238 220 201 250 270 277 242 233 242 247 252 264 270 123 172 179 202 263 292 290 273 264 265 231 187 183 167 155 155 141 158 160 163 161 153 149 150
234 231 232 240 231 208 198 201 204 199 204 219 229 222 225 334 339 359 345 270 268 225 204 204 215 216 196 164 174 186 204 204 197 176 177 177 163 169 192 187 201 219 206 198 201 219 233 235 206 209 216 216 209 200 200 225 249 229 217 218 238 242 234 240 229 187 185 221 238 273 292 270 241 243 233 166 101 79 97 91 64 41 126 132 134 141 150 154
231 228 228 230 213 190 187 199 206 202 204 221 239 235 231 256 313 342 2 273 249 247 210 200 202 212 193 157 164 176 199 224 224 164 174 182 166 148 194 195 202 218 212 206 208 234 244 228 164 193 198 187 202 220 194 190 236 244 218 213 223 237 250 270 312 0 337 288 226 159 281 271 235 235 219 140 127 172 153 159 175 181 135 121 130 145 150 147
228 225 224 220 197 182 187 207 203 192 201 225 237 235 231 231 267 318 14 289 256 245 128 179 170 184 178 153 153 140 136 235 236 144 168 186 187 158 196 186 195 225 216 213 217 241 237 167 142 173 177 173 198 233 192 174 214 253 256 237 215 225 260 311 340 346 279 283 264 143 219 271 290 272 197 162 197 199 178 195 198 186 173 156 155 158 151 146
224 220 219 209 188 185 190 188 183 179 189 233 227 213 219 216 222 261 136 296 265 176 134 181 179 175 166 156 156 135 168 184 95 128 163 187 194 125 208 190 179 218 224 226 226 225 127 140 143 153 163 178 195 223 190 168 184 238 284 354 94 177 264 288 288 252 241 300 280 179 183 274 282 256 180 169 190 204 201 205 204 190 181 176 171 166 159 156
222 216 215 203 189 192 192 165 171 180 184 195 194 200 208 201 204 225 124 252 267 129 132 182 139 122 135 157 163 147 128 136 116 155 54 66 187 73 211 207 190 188 191 203 219 281 113 164 173 169 180 200 197 218 192 173 178 221 244 44 73 86 44 322 253 251 284 318 265 191 161 255 276 243 156 167 188 214 216 205 202 192 179 178 176 168 162 158
220 214 211 200 192 199 201 194 181 188 196 166 140 180 182 176 188 140 65 227 226 104 128 143 129 112 128 161 179 156 101 77 101 252 25 60 256 44 212 227 224 199 202 214 219 280 52 180 176 175 194 206 166 24 337 173 175 191 141 83 73 76 62 33 254 248 305 275 238 195 166 215 271 247 142 168 219 228 224 204 194 187 177 179 174 164 161 157
218 214 208 196 195 203 207 218 217 194 193 191 164 160 158 157 169 152 205 226 253 93 103 110 153 152 150 160 178 165 133 65 75 126 128 154 0 353 269 289 308 244 224 230 232 209 108 126 254 182 195 166 119 52 9 77 135 155 138 94 86 93 71 56 241 115 306 264 226 187 182 196 267 239 168 192 222 214 209 184 178 177 174 178 171 162 160 156
217 214 206 195 196 198 198 214 214 195 194 198 180 148 150 146 104 193 206 242 335 135 127 121 149 150 162 163 167 186 172 122 134 150 152 154 148 312 226 155 25 317 305 269 256 180 128 132 84 1 51 114 108 71 13 14 99 140 127 110 114 67 47 39 250 143 227 259 222 183 189 194 229 246 188 194 217 210 195 173 173 174 173 176 169 162 158 154
216 213 206 198 196 194 193 203 198 191 196 188 165 147 159 145 213 222 212 90 6 189 149 148 162 162 173 175 175 181 169 148 161 168 157 158 177 193 197 191 161 164 236 234 222 201 212 204 161 100 298 170 137 103 37 356 324 156 129 123 129 136 0 241 202 184 225 253 266 197 197 208 231 247 242 232 230 241 196 167 168 169 171 174 167 162 158 155
215 211 206 201 198 196 197 196 190 190 187 171 159 143 154 173 207 218 210 180 185 185 131 141 168 172 175 181 178 159 159 163 166 169 160 157 181 203 214 216 189 189 215 188 189 194 239 225 173 159 284 197 175 172 177 234 204 179 159 151 160 172 220 234 212 225 242 248 285 328 174 255 270 256 248 238 217 5 38 147 163 166 169 171 164 158 154 155
215 208 204 203 201 200 197 190 189 189 176 159 156 143 158 197 220 216 218 221 215 81 111 144 158 167 178 188 165 153 168 179 165 165 160 160 187 206 210 221 211 211 158 158 188 179 205 267 188 176 182 180 191 202 184 146 167 192 178 170 184 173 193 224 205 226 257 280 304 312 147 195 219 233 251 253 71 19 9 121 146 154 159 157 150 151 153 158
215 207 203 201 202 203 197 188 188 187 175 160 170 174 177 203 218 214 220 221 212 182 130 143 145 159 190 196 159 168 181 161 166 171 176 183 201 202 197 208 207 199 167 183 203 169 207 259 176 164 152 166 190 211 165 122 154 210 174 187 219 195 195 237 206 170 162 337 291 233 228 222 205 180 133 65 60 30 4 94 133 142 148 148 151 157 161 164
213 207 203 200 203 204 197 187 185 184 176 167 187 190 196 208 210 207 205 197 197 176 142 151 156 168 189 177 167 185 175 110 162 177 202 206 221 217 204 198 194 195 187 183 184 159 195 257 124 117 120 164 188 211 176 148 167 185 171 199 208 143 176 233 282 75 104 276 254 181 244 284 279 267 151 117 87 57 349 139 145 151 152 155 165 167 167 171
211 209 206 202 205 204 197 189 183 181 177 179 195 201 210 217 213 199 179 184 179 155 154 182 184 179 186 178 180 185 168 121 166 180 184 195 230 218 209 202 184 197 204 190 197 193 167 203 275 142 146 186 313 275 165 69 104 139 183 197 134 59 37 185 276 349 168 252 259 177 212 230 198 244 167 131 148 186 219 198 158 157 162 167 175 173 173 172
209 208 211 212 208 202 198 192 183 179 181 190 199 208 218 220 218 205 189 187 172 162 187 215 195 180 191 194 182 174 174 165 173 185 172 179 224 197 194 204 185 195 207 197 208 269 152 184 271 323 79 28 349 74 119 5 60 129 196 212 126 129 233 151 196 251 205 240 279 209 208 206 196 210 174 179 202 196 197 200 181 174 176 178 177 174 173 169
208 198 227 218 207 199 197 194 184 180 191 191 197 212 219 218 217 211 207 208 192 182 202 217 207 198 204 204 183 167 179 180 167 180 190 186 214 188 182 192 191 193 197 191 201 230 148 191 244 316 0 109 88 175 175 199 233 54 332 289 105 154 189 167 195 224 190 236 274 249 214 217 215 195 176 194 207 188 181 194 193 185 184 184 178 174 176 176
202 194 245 211 201 196 193 191 186 191 200 192 196 210 216 216 213 212 219 227 212 196 209 216 210 211 211 208 195 171 185 191 171 183 205 183 189 202 183 180 187 187 183 188 198 164 118 200 217 314 338 125 164 207 192 188 188 182 202 214 196 173 125 149 240 214 190 231 254 261 265 251 240 194 180 193 199 184 179 187 193 190 186 184 179 178 180 181
190 232 248 191 190 188 184 185 192 199 200 194 201 214 218 211 206 208 218 237 244 216 212 220 216 218 216 212 203 170 177 197 184 188 208 192 195 217 185 180 179 163 150 174 198 185 167 188 178 162 236 215 218 217 204 197 192 190 194 194 192 185 158 198 242 208 194 225 213 232 264 252 245 325 184 181 185 184 182 183 188 188 184 183 183 183 184 183
189 239 201 170 179 178 174 188 198 187 200 200 203 213 204 177 204 208 208 227 250 247 219 252 233 227 222 215 203 170 171 194 193 192 208 207 205 204 184 182 172 153 143 161 201 193 125 125 184 192 200 217 236 222 183 193 187 200 220 199 181 183 181 200 224 199 182 229 196 166 276 263 237 336 9 82 139 174 178 177 182 187 185 183 182 182 184 184
228 248 167 169 174 171 170 205 193 187 210 204 208 216 192 171 201 205 201 211 224 229 222 236 232 227 232 222 202 180 177 192 200 198 208 210 208 213 185 176 159 151 154 162 191 172 78 111 196 213 263 339 325 341 43 37 59 322 255 199 183 201 200 201 215 159 165 221 183 174 259 263 268 356 352 2 46 88 154 170 176 182 182 181 180 177 180 181
223 243 262 178 175 171 175 205 192 203 208 199 207 213 214 215 201 202 207 205 207 215 221 229 226 224 235 224 204 192 182 197 216 208 208 203 201 331 228 174 159 160 172 176 170 164 154 170 165 178 246 271 288 252 333 339 197 214 226 204 206 209 197 199 205 71 247 221 174 190 243 248 260 317 302 323 57 79 120 155 163 171 177 180 177 172 174 175
211 193 316 199 180 177 193 203 194 203 204 200 202 204 213 223 209 208 210 207 210 213 220 231 230 232 240 221 245 224 204 218 228 214 216 210 191 338 325 187 168 173 185 182 160 164 179 179 165 183 217 227 229 218 208 195 181 222 214 201 212 207 192 197 190 209 240 213 160 210 240 253 302 275 210 186 122 122 134 139 151 165 171 172 170 169 171 173
206 205 222 269 205 204 225 206 195 201 203 203 202 202 209 215 215 210 208 213 215 212 224 236 223 226 235 228 235 239 228 231 234 184 212 206 178 306 334 0 65 158 113 89 149 154 146 185 192 198 216 226 226 221 183 147 152 205 208 197 207 207 198 200 206 219 225 199 209 228 230 253 270 230 218 212 176 174 176 162 163 163 163 168 171 171 170 170
204 210 177 172 252 242 242 224 200 203 201 198 196 196 203 210 215 198 198 213 210 205 224 235 209 212 216 215 226 234 231 229 219 194 224 204 126 5 8 15 9 72 93 98 133 120 124 206 210 207 224 231 210 171 169 160 176 202 203 199 203 202 198 200 218 221 175 178 246 228 179 229 240 204 213 217 186 191 190 182 187 171 160 163 159 157 160 161
210 203 174 163 164 225 238 226 203 214 209 198 197 206 203 208 211 196 195 210 207 198 209 224 219 219 214 210 216 224 227 226 217 219 225 199 123 87 24 343 302 112 109 113 341 97 156 217 214 203 229 238 217 178 176 172 192 202 198 204 200 196 199 203 219 223 172 203 245 197 158 222 233 190 210 210 188 198 191 177 176 156 146 148 148 155 163 164
224 249 192 171 167 188 213 191 135 239 224 202 200 212 209 209 214 209 195 193 203 202 200 213 223 219 216 215 215 214 217 217 220 221 208 174 155 160 166 265 243 135 104 125 227 171 176 226 206 188 228 243 232 223 199 160 194 229 212 215 206 200 203 204 218 223 208 227 242 212 190 246 242 181 206 200 179 185 150 130 144 147 151 153 154 165 172 175
202 216 177 145 161 168 175 169 167 238 246 217 209 209 206 211 215 213 200 182 195 200 196 215 226 219 212 216 218 222 220 213 221 225 191 167 187 191 192 203 163 139 156 163 182 236 210 219 179 157 226 248 234 227 218 181 203 234 239 234 222 210 207 210 221 221 215 235 244 240 253 263 244 142 175 137 131 132 118 127 144 153 160 154 158 174 179 185
284 293 217 154 172 170 164 173 179 197 234 230 223 207 205 216 216 210 209 203 204 201 195 214 226 221 210 215 217 224 228 222 226 228 188 182 202 199 195 187 144 146 174 171 156 182 192 214 100 129 218 245 225 208 208 173 174 258 255 241 225 206 203 213 220 215 209 226 237 237 244 245 190 118 85 70 111 127 137 150 145 151 159 155 170 185 188 196
302 307 300 197 193 180 170 169 173 187 201 199 211 217 217 224 218 201 212 231 220 215 206 217 226 221 210 217 219 225 228 213 208 221 179 183 195 157 159 165 149 153 165 159 135 149 164 176 156 160 213 250 227 176 174 133 111 256 255 241 214 196 209 221 221 218 214 215 222 230 236 228 167 144 145 149 145 145 163 167 152 158 166 171 186 192 195 203
Height
809 809 809 809 809 809 809 809 809 809 810 810 810 810 810 810 810 810 810 810 810 810 810 810 809 809 809 808 807 806 805 804 804 803 804 805 805 805 806 806 806 806 805 805 804 804 803 802 802 802 803 803 804 805 805 805 804 809 815 820 822 820 820 816 814 816 818 821 821 819 817 819 823 821 818 818 820 821 822 826 829 829 831 834 836 836 836 836
809 809 809 809 809 809 809 809 809 809 809 810 810 810 810 810 810 810 810 810 810 810 809 809 809 809 808 808 807 806 805 804 803 803 804 805 805 806 806 806 806 806 806 805 805 805 805 804 803 802 803 806 806 806 808 806 806 813 816 819 821 819 817 811 811 814 814 817 819 818 819 819 821 821 819 823 824 821 825 829 830 832 834 835 836 836 837 836
808 809 809 809 809 809 809 808 809 809 809 809 809 809 809 809 809 809 810 810 809 809 809 809 809 809 808 808 806 806 805 803 804 805 805 805 806 806 807 807 807 807 806 806 806 806 806 805 804 804 805 808 808 807 810 809 809 812 815 822 822 816 815 811 811 814 814 815 817 819 820 820 819 818 819 824 825 823 828 831 830 832 834 835 836 836 837 837
808 809 809 809 809 809 809 809 808 808 808 808 808 809 809 809 809 809 809 809 809 809 809 809 809 809 809 807 807 806 804 806 807 806 805 806 806 807 807 807 807 807 806 806 807 806 806 805 804 804 807 810 808 807 811 811 812 812 815 823 819 813 816 815 813 815 816 816 817 819 821 821 818 817 820 824 826 827 831 833 831 832 834 835 836 837 837 838
808 809 809 809 809 809 809 809 808 808 808 807 808 808 808 808 809 809 809 809 809 809 809 809 809 809 808 807 807 805 805 813 811 804 806 806 806 807 807 808 807 808 807 807 807 806 807 805 805 806 809 812 810 811 814 810 811 815 815 816 815 813 817 816 815 817 817 817 819 820 822 821 818 819 820 822 827 831 833 833 832 833 834 835 836 837 838 838
808 808 809 808 808 809 808 808 808 808 807 807 807 808 808 808 808 809 809 809 809 809 809 809 809 809 808 807 807 805 809 816 809 803 806 805 806 807 807 808 808 808 807 807 807 807 807 806 808 811 811 812 811 814 816 810 810 819 817 813 814 814 817 816 816 819 818 819 821 821 821 819 820 822 819 820 827 831 833 833 833 834 835 836 836 837 838 839
807 808 808 808 808 808 808 808 808 807 807 807 807 808 808 808 808 808 808 809 809 809 809 809 809 808 808 807 807 805 808 810 804 804 806 805 807 807 807 808 807 808 807 808 808 807 808 808 810 812 812 814 813 814 815 812 811 818 819 815 816 816 816 816 817 819 819 820 820 819 821 821 824 824 818 822 829 830 832 832 833 835 835 836 836 837 839 839
807 807 807 807 808 808 808 807 807 807 808 808 808 808 808 808 808 808 808 809 809 809 809 809 809 808 807 807 807 807 807 806 803 805 805 805 807 806 808 808 808 809 808 809 809 808 810 811 811 811 815 816 814 814 815 815 815 817 819 816 817 817 816 816 817 819 819 820 819 819 823 823 822 822 820 824 829 830 831 832 833 834 835 835 836 838 839 839
806 807 807 807 807 807 807 807 807 807 807 808 808 807 807 807 808 808 808 808 808 809 809 808 808 807 808 806 807 810 808 804 804 804 805 806 806 807 808 808 809 809 809 810 809 810 811 812 812 811 816 816 814 815 815 819 822 819 819 818 817 818 815 815 817 818 819 819 819 822 824 821 818 819 822 824 827 829 831 832 833 834 835 836 837 838 839 840
806 806 807 807 807 807 807 807 807 807 807 807 807 807 807 807 808 808 808 808 808 809 808 808 808 807 808 807 809 812 807 803 804 804 805 806 806 807 808 808 809 809 810 810 810 810 811 812 812 810 814 814 814 816 816 821 823 818 818 818 817 817 814 814 817 816 817 818 818 823 824 820 817 820 824 825 826 828 830 832 833 833 835 836 837 838 839 840
805 805 806 806 807 807 807 807 807 807 807 807 807 807 807 807 807 808 808 808 808 808 808 808 807 808 807 807 811 811 805 803 804 804 805 806 806 807 807 808 809 810 810 810 810 811 811 812 810 810 815 816 815 817 817 818 819 818 820 821 817 816 814 814 816 815 816 818 817 820 823 820 821 822 822 823 826 827 829 832 832 833 835 836 837 839 839 840
805 805 806 806 806 807 807 807 807 807 807 807 807 807 807 808 807 808 807 808 808 808 808 808 808 808 807 809 810 806 803 804 804 804 805 805 806 807 807 808 809 810 810 810 811 811 812 811 811 814 817 816 818 820 820 817 818 819 820 824 819 814 816 813 813 814 815 819 816 818 827 826 823 822 819 822 825 826 827 830 832 833 835 836 837 838 839 840
804 805 805 806 806 806 807 807 807 807 807 807 807 807 808 808 807 808 807 808 808 808 808 808 808 807 809 809 805 802 803 803 803 804 805 805 806 807 807 808 809 810 810 811 811 811 812 812 812 815 814 816 820 821 819 816 819 821 820 824 824 822 818 808 809 815 816 819 814 819 835 828 817 819 821 822 824 825 827 829 831 832 834 836 837 838 840 841
803 804 804 805 806 806 807 808 808 808 807 807 807 807 807 807 808 808 807 808 808 808 808 808 808 808 810 807 802 802 803 803 804 804 805 805 806 807 808 808 809 810 810 811 812 812 812 812 813 814 814 817 819 818 820 819 821 823 821 823 827 832 824 808 809 816 818 820 814 821 837 826 814 820 822 822 823 824 826 827 829 831 833 835 836 838 840 841
802 803 804 805 805 806 807 808 808 808 808 807 806 807 807 807 808 808 808 808 808 808 808 808 808 808 810 806 801 802 803 803 804 804 805 805 806 807 808 809 809 810 811 811 811 812 812 812 814 816 817 816 818 822 824 823 821 822 830 831 827 832 827 814 811 813 817 820 815 823 833 824 817 821 821 820 822 823 824 824 826 829 831 834 835 837 839 841
802 803 803 804 805 806 807 807 808 808 808 807 807 807 807 807 808 808 808 808 808 809 808 809 808 809 811 806 802 803 803 803 803 804 805 805 806 807 808 809 810 810 811 811 812 813 813 813 816 818 819 819 821 826 829 830 826 821 830 835 828 828 827 820 815 810 812 818 818 822 825 820 818 820 820 820 821 822 822 822 824 827 829 832 834 835 837 840
801 802 802 803 804 805 806 807 808 808 808 807 806 806 807 807 808 808 808 808 809 808 808 808 807 809 809 804 803 802 800 801 803 804 804 805 806 807 808 809 810 811 811 812 813 813 813 815 818 819 818 821 822 825 836 843 837 826 827 831 826 821 821 822 820 813 811 817 820 821 822 819 815 818 820 819 819 821 821 820 822 826 828 830 832 834 836 838
800 801 802 803 803 805 806 807 807 808 808 807 806 807 807 807 808 808 809 809 809 809 810 808 809 814 810 802 801 800 798 800 802 803 804 805 806 807 808 809 810 811 812 814 815 815 816 816 819 822 822 825 823 826 840 841 831 825 826 829 827 819 817 818 819 815 812 817 819 820 823 817 812 817 819 818 818 819 819 818 819 823 827 829 831 833 834 836
798 799 801 802 803 804 805 806 807 807 808 807 807 807 807 808 809 808 809 809 809 809 809 806 805 810 805 797 796 798 798 800 802 803 804 805 807 808 808 809 810 811 815 819 818 815 817 820 825 830 829 827 824 823 828 824 818 818 820 824 826 823 819 813 814 814 811 818 820 818 819 813 810 815 818 817 816 817 817 816 818 822 825 828 830 832 833 835
797 798 800 801 802 803 804 806 807 807 808 808 808 809 808 808 809 808 808 808 804 800 797 797 796 797 796 793 795 798 799 801 802 803 804 805 807 808 809 810 811 814 817 819 820 815 816 826 831 830 826 820 817 815 815 813 812 815 818 821 822 824 822 813 814 815 810 817 819 813 814 811 807 809 812 815 816 817 817 815 818 821 823 826 828 830 832 835
795 797 798 800 801 802 804 805 806 807 807 807 808 808 806 805 807 808 807 803 798 794 793 792 792 793 792 792 794 795 797 801 803 802 805 805 805 809 811 811 816 821 818 814 818 816 818 829 827 819 815 812 809 808 809 811 812 814 819 823 823 824 822 812 813 815 811 818 820 812 814 813 807 804 807 813 817 817 814 814 817 818 821 824 826 829 831 835
794 795 797 799 800 802 803 804 806 807 807 808 808 806 804 804 806 806 806 803 795 791 793 791 791 792 791 791 792 792 795 801 804 803 803 804 806 809 810 811 818 820 814 812 819 824 827 828 819 810 808 807 806 805 806 810 812 815 819 825 828 824 819 814 815 817 815 822 822 816 817 815 806 802 804 810 812 811 809 809 812 815 818 822 824 827 831 835
792 793 796 797 799 801 802 804 806 806 807 807 806 806 804 805 806 805 807 807 797 788 789 790 790 790 790 792 791 792 794 796 801 802 801 803 805 807 808 812 816 814 812 814 820 828 830 821 810 806 805 806 808 808 809 812 815 818 820 827 829 823 822 824 823 821 818 821 822 819 821 816 808 803 800 804 807 807 810 810 811 814 816 820 822 826 830 833
789 791 794 795 798 800 801 804 805 805 806 805 805 804 804 805 805 805 805 804 797 785 781 783 784 784 786 788 787 790 793 790 792 797 798 800 802 804 806 807 811 812 811 811 814 820 818 807 799 801 804 805 810 811 813 819 821 820 820 824 826 820 820 821 819 819 819 821 820 823 829 818 807 805 800 804 810 811 814 815 815 817 817 819 822 825 829 831
787 790 791 794 797 798 801 804 802 803 804 804 804 802 803 805 804 805 805 804 798 785 780 779 780 780 779 783 786 786 791 789 786 790 792 795 797 801 804 802 806 812 808 806 811 814 808 800 796 801 804 806 812 814 814 819 825 822 817 817 818 817 817 816 816 820 827 831 822 825 837 820 799 798 800 807 814 813 815 816 817 819 819 820 823 825 828 830
785 787 789 793 796 797 801 801 799 802 803 802 802 801 804 804 804 805 805 811 803 785 783 782 778 777 774 780 784 785 794 792 784 785 789 792 792 795 802 801 801 806 803 801 806 807 803 799 798 801 806 808 814 816 812 815 825 827 818 812 812 813 817 819 821 826 835 836 823 823 837 828 805 797 800 809 814 812 815 816 815 818 819 821 823 824 826 829
782 785 787 791 793 795 798 797 797 800 800 800 798 800 804 801 806 804 806 823 805 773 778 783 776 774 772 776 778 785 797 791 785 789 788 791 791 791 800 801 800 803 799 800 809 805 800 804 804 804 808 813 817 818 811 811 823 827 819 813 812 814 820 822 824 831 831 829 826 823 830 835 820 801 797 806 813 811 812 815 813 814 817 819 821 822 824 827
780 782 785 788 790 792 793 794 795 796 797 797 795 800 801 800 806 802 812 831 796 758 769 777 773 771 770 775 775 781 789 783 787 795 790 792 793 792 799 799 798 802 797 802 815 807 799 806 807 805 812 815 814 813 806 807 819 823 818 816 815 818 822 822 825 831 829 832 838 829 828 838 823 797 794 802 806 807 806 808 809 809 813 815 816 819 822 825
777 780 781 785 789 791 792 793 793 793 794 795 795 799 799 802 805 802 820 822 776 753 767 770 773 774 772 778 778 779 784 784 790 795 792 794 793 793 799 796 794 799 797 799 807 805 803 808 806 804 811 812 810 812 808 805 813 819 817 817 819 821 823 825 829 831 834 840 841 830 828 836 820 795 799 806 801 798 794 796 802 804 808 812 812 816 819 822
774 776 779 783 786 788 791 791 791 791 792 794 796 797 798 803 804 813 831 807 762 758 770 769 774 776 775 782 784 782 785 790 793 794 795 795 794 795 796 795 795 798 800 799 801 803 806 809 807 805 807 808 811 817 816 811 811 816 818 820 824 826 825 829 830 832 843 842 831 823 821 830 824 798 793 799 790 784 783 788 798 801 806 810 810 814 817 820
769 773 776 778 779 782 786 787 788 790 791 792 794 796 799 804 807 817 817 783 758 766 772 774 776 774 775 780 784 785 786 792 794 794 797 797 799 800 798 799 801 805 809 808 805 807 809 811 809 807 806 807 811 817 820 817 814 816 819 823 830 833 833 838 836 839 851 839 819 815 812 823 828 800 783 783 776 773 775 782 792 798 803 807 809 813 815 818
765 768 772 773 774 777 778 779 783 788 789 790 793 794 797 808 815 809 791 770 766 765 763 772 776 773 775 775 777 781 784 790 792 791 795 798 801 801 798 799 801 810 817 815 812 812 811 810 808 807 808 806 809 817 824 823 819 819 821 826 836 842 844 848 846 847 847 831 816 815 814 818 815 791 778 776 772 771 770 775 786 793 799 804 807 811 814 817
760 764 768 769 770 771 772 775 782 786 787 788 791 791 796 809 808 792 776 767 764 757 755 765 769 769 773 774 777 780 782 787 789 789 791 794 800 800 796 792 791 797 804 808 814 817 813 808 806 810 809 803 803 812 822 824 822 821 822 828 837 842 847 848 844 841 834 823 818 818 818 819 805 784 775 773 773 776 772 774 782 787 793 799 803 809 813 816
756 759 761 763 766 768 770 774 778 783 786 787 789 792 798 804 792 778 772 762 754 754 756 761 765 769 771 772 775 776 781 787 785 786 790 794 800 800 796 793 787 787 793 802 809 813 816 809 802 804 802 798 797 798 803 811 819 818 812 817 826 828 830 832 830 828 824 822 824 823 819 811 798 785 780 778 780 782 778 777 782 787 792 797 802 808 812 815
752 754 756 760 763 764 767 770 773 780 785 785 787 788 791 789 776 768 764 754 752 757 759 759 764 773 774 772 774 772 776 784 785 785 789 791 793 791 788 787 785 784 792 801 800 800 808 799 788 791 792 792 795 791 790 803 818 816 808 814 820 813 811 817 821 820 822 826 826 823 814 797 786 784 786 787 785 784 783 781 784 789 793 798 803 807 810 813
751 752 754 755 756 758 763 766 770 775 779 782 786 781 771 759 749 749 747 744 750 756 762 765 766 773 777 774 778 775 771 778 785 787 788 786 784 781 778 777 778 779 782 789 789 791 801 798 790 793 794 792 795 792 789 797 808 812 813 815 811 803 803 814 823 822 825 829 818 811 807 795 785 783 785 788 786 786 788 785 786 790 793 798 802 804 808 810
749 750 751 750 750 754 759 762 765 770 773 776 776 767 754 740 733 737 737 736 743 749 758 767 764 766 772 773 777 778 773 777 783 786 788 788 781 773 772 770 769 771 770 773 778 778 786 796 797 796 797 797 796 794 792 793 798 808 814 809 801 805 808 814 824 825 826 826 809 798 800 796 789 786 786 789 787 788 790 786 788 791 793 797 800 803 806 807
744 748 747 743 745 750 756 759 760 764 768 767 767 760 749 739 732 732 732 732 737 744 752 758 755 754 760 765 770 772 773 776 783 784 783 785 776 762 764 767 763 764 763 767 776 773 774 790 801 800 800 801 797 796 800 799 797 802 806 799 800 812 817 816 823 824 824 822 806 793 792 789 784 780 781 783 780 783 789 788 787 790 792 795 798 802 805 807
740 745 739 732 739 747 752 755 755 759 759 758 763 758 742 735 733 730 731 731 733 740 745 746 746 748 750 752 759 766 769 769 777 781 775 776 771 754 754 760 759 760 761 765 773 772 772 784 798 804 803 801 800 801 805 804 801 803 804 799 797 805 809 810 811 809 812 816 807 795 788 779 769 762 764 768 768 773 784 785 783 785 787 790 794 798 802 804
735 738 725 718 730 740 746 752 752 752 749 747 753 749 736 734 735 731 730 730 729 733 738 738 740 744 744 743 748 758 763 761 766 773 767 764 763 754 749 752 756 759 760 764 769 771 775 781 792 807 808 803 802 798 794 794 797 802 807 804 800 802 805 805 802 797 801 808 805 799 790 771 757 753 752 754 758 765 774 777 778 779 782 786 790 794 797 799
731 730 716 711 722 731 740 746 744 742 742 743 746 742 735 735 735 733 731 731 730 727 728 733 735 735 737 739 742 748 757 758 759 764 761 756 755 753 748 745 750 756 761 770 772 771 777 780 788 805 810 803 795 787 783 784 784 789 795 795 795 798 803 808 805 794 792 797 795 795 790 767 754 756 751 747 750 757 764 770 773 775 778 782 786 789 792 795
727 723 712 710 717 725 734 736 733 735 737 738 738 735 734 733 734 735 733 733 734 730 728 732 732 731 731 732 735 743 751 754 754 755 754 749 745 744 742 740 744 750 757 768 769 765 770 778 785 795 798 795 790 785 785 785 781 783 787 786 788 793 796 802 803 792 790 791 786 792 791 767 755 761 758 752 752 753 759 766 769 772 774 777 782 786 790 793
722 718 713 712 712 719 728 728 727 731 731 732 733 732 733 734 734 735 734 734 735 732 732 733 731 731 730 726 730 739 745 748 748 746 745 744 741 739 737 737 743 749 754 762 766 765 770 778 784 787 787 789 790 787 787 787 785 787 786 783 784 785 784 788 789 787 790 789 786 797 793 766 756 764 764 761 758 755 758 762 766 771 773 775 779 783 788 792
719 717 716 713 711 714 719 720 724 729 729 730 735 735 733 733 732 732 732 732 730 730 733 733 729 730 729 726 729 733 738 743 742 740 739 739 741 743 739 735 740 746 749 753 756 762 771 778 784 791 793 794 795 794 793 791 790 788 784 782 780 778 781 784 784 789 790 781 782 793 783 761 757 764 764 764 762 758 759 761 764 769 772 775 778 781 785 790
718 718 716 713 710 711 709 707 715 725 727 729 733 734 732 731 728 727 728 728 727 728 730 729 726 728 729 730 732 734 735 736 736 738 738 737 742 747 744 740 740 741 743 745 745 752 764 770 773 782 788 785 782 782 782 783 787 785 781 780 778 777 780 781 785 792 788 776 776 778 767 757 759 761 761 763 762 760 761 761 763 766 769 773 776 779 783 787
715 716 716 714 711 709 707 704 708 716 721 725 729 729 730 728 724 723 726 728 726 726 726 726 725 729 732 734 735 735 733 732 735 739 739 737 743 749 749 748 746 744 745 747 746 751 762 764 760 761 763 759 757 758 759 765 775 778 775 775 775 775 776 778 784 784 778 776 774 762 755 758 759 757 758 759 759 761 762 763 764 764 767 771 774 777 781 784
709 709 711 712 710 709 709 708 708 709 710 716 720 719 721 723 721 723 726 724 722 723 726 727 728 730 732 733 735 733 731 732 737 742 740 739 747 755 755 753 751 750 750 749 750 755 761 762 756 753 752 747 747 751 753 756 762 765 767 771 772 773 775 778 777 768 767 777 769 751 751 758 755 753 754 754 757 759 759 761 763 763 766 768 771 776 780 783
703 701 699 701 705 707 706 705 707 707 705 709 712 711 714 717 718 720 720 719 719 722 727 730 729 727 725 726 730 733 733 734 737 740 739 741 750 757 757 755 755 755 754 754 756 757 756 754 753 755 754 748 748 754 753 753 756 758 760 764 767 770 771 772 768 760 763 768 756 745 749 750 747 749 750 749 751 752 752 756 760 762 766 768 770 774 778 782
701 700 697 696 699 702 703 703 707 708 706 707 708 709 712 713 712 711 711 717 720 719 722 726 722 719 720 722 726 730 731 732 733 732 732 739 747 752 752 752 755 759 758 757 760 759 753 750 751 755 756 752 751 754 753 755 758 757 757 758 759 762 762 762 759 757 761 757 746 747 752 747 744 745 743 744 746 747 751 755 758 762 765 768 770 773 776 780
697 697 697 698 698 699 701 702 707 711 711 708 706 706 708 709 708 706 705 711 716 715 716 716 711 712 718 720 722 724 721 720 722 723 726 735 742 744 742 741 746 759 762 758 760 759 754 751 750 755 759 755 751 753 756 759 759 758 758 755 754 756 760 761 756 755 762 757 747 753 758 750 744 740 741 747 747 748 754 756 759 763 764 766 770 772 775 778
695 692 692 695 697 698 700 700 705 712 715 713 708 705 705 705 702 703 703 703 705 707 710 708 706 710 716 718 719 718 713 711 715 717 719 725 729 730 732 733 738 753 761 759 758 758 758 758 756 758 760 752 746 751 758 761 764 765 759 750 751 755 756 755 751 750 754 753 751 758 757 747 741 740 745 750 749 749 753 754 757 762 763 765 768 770 773 774
696 694 691 690 690 692 696 698 703 709 709 709 709 706 703 701 700 704 707 705 702 704 705 704 706 712 716 716 714 710 709 713 719 721 721 722 722 724 729 732 734 742 752 757 759 760 761 761 760 761 759 750 748 753 758 767 772 764 744 732 740 751 750 746 745 743 744 745 749 751 744 737 740 742 744 749 749 749 750 751 753 757 761 765 766 767 769 770